Location: Unspecified
(0.0000°N, 0.0000°E)
Time: 04:29:38
(UTC+02:00)

Atlas Centaur 2 - Visible Passes

Search period start: 07 July 2015 00:00
Search period end: 17 July 2015 00:00
Orbit: 460 x 1320 km, 30.4° (Epoch: 06 July)

Date Brightness Start Highest point End Pass type
(mag) Time Alt. Az. Time Alt. Az. Time Alt. Az.
07 Jul 5.4 00:07:55 10° NNW 00:08:22 11° NNW 00:08:22 11° NNW visible
08 Jul 5.3 00:05:11 10° NNW 00:05:51 12° NNW 00:05:51 12° NNW visible
09 Jul 5.3 00:02:34 10° NNW 00:03:22 13° NNW 00:03:22 13° NNW visible
09 Jul 4.9 22:14:37 10° N 22:16:53 12° NNE 22:18:15 11° NE visible
10 Jul 5.2 00:00:03 10° NW 00:00:56 14° NNW 00:00:56 14° NNW visible
10 Jul 4.6 22:11:16 10° N 22:14:54 15° NNE 22:15:52 15° NE visible
10 Jul 5.2 23:57:39 10° NW 23:58:34 14° NW 23:58:34 14° NW visible
11 Jul 4.4 22:08:21 10° N 22:12:50 19° NNE 22:13:32 19° NE visible
11 Jul 5.1 23:55:20 10° NW 23:56:14 14° NW 23:56:14 14° NW visible
12 Jul 4.1 22:05:38 10° NNW 22:10:43 24° NNE 22:11:16 24° NE visible
12 Jul 5.1 23:53:07 10° NW 23:53:57 14° NW 23:53:57 14° NW visible
13 Jul 3.7 22:03:04 10° NNW 22:08:33 30° NNE 22:09:02 30° NE visible
13 Jul 5.1 23:51:00 10° WNW 23:51:44 14° WNW 23:51:44 14° WNW visible
14 Jul 3.3 22:00:38 10° NNW 22:06:20 39° NE 22:06:52 38° NE visible
14 Jul 5.2 23:49:03 10° WNW 23:49:34 13° WNW 23:49:34 13° WNW visible
15 Jul 2.9 21:58:18 10° NW 22:04:06 50° NE 22:04:45 49° NE visible
15 Jul 5.2 23:47:12 10° WNW 23:47:28 11° W 23:47:28 11° W visible
16 Jul 2.5 21:56:05 10° NW 22:01:52 67° NNE 22:02:41 61° ENE visible
